EUTELSAT 174A           
1 28924U 05052A   19260.81686365  .00000006  00000-0  00000+0 0  9993
2 28924   0.0665 356.1180 0006160 183.7099 284.7103  1.00273237 50272
BREEZE-M R/B            
1 28925U 05052B   19259.86776094 -.00000058  00000-0  00000-0 0  9995
2 28925  18.5592 260.2940 5410976  22.3675 106.5462  1.94153159 97208
BREEZE-M DEB [TANK]     
1 28926U 05052C   19259.54990542  .00001665  00000-0  22616-3 0  9991
2 28926  49.4972 208.8059 5169201  65.0953 339.2856  5.35916871261187